Regional Weather Roundup
Issued by NWS

Home | Current Version | Previous Version | Text Only | Print | Product List | Glossary On
Versions: 1 2 3 4 5 6 7 8 9 10 11 12 13 14 15 16 17 18 19 20 21 22 23 24 25 26 27 28 29 30 31 32 33 34 35 36 37 38 39 40 41 42 43 44 45 46 47 48 49 50
000
ASUS46 KSEW 110810
RWRWA

WASHINGTON REGIONAL WEATHER ROUNDUP
NATIONAL WEATHER SERVICE SEATTLE WA
1200 AM PST THU FEB 11 2016

NOTE:"FAIR" INDICATES FEW OR NO CLOUDS BELOW 12,000 FEET WITH NO
SIGNIFICANT WEATHER AND/OR OBSTRUCTIONS TO VISIBILITY.

WAZ505-507>509-110900-
SEATTLE, TACOMA, EVERETT, AND VICINITY

CITY           SKY/WX    TMP DP  RH WIND       PRES   REMARKS
EVERETT        MOCLDY    50  45  83 S5        30.31R
BOEING FIELD   PTCLDY    46  44  93 CALM      30.31S
RENTON         PTCLDY    47  45  93 N3        30.30F
SEATAC AIRPORT PTCLDY    46  44  93 NW5       30.30F
JBLM-MCCHORD   CLOUDY    47  47 100 N3        30.29F
PUYALLUP       CLOUDY    46  46 100 CALM      30.30R
BREMERTON      PTCLDY    39  39 100 CALM      30.34F
JBLM-FT LEWIS  MOCLDY    47  47 100 CALM      30.29S
TACOMA NARROWS MOCLDY    49  47  93 CALM      30.30S
$$

WAZ001-503-506-510-514-515-110900-
NORTH INTERIOR

CITY           SKY/WX    TMP DP  RH WIND       PRES   REMARKS
BELLINGHAM     FOG       40  39  97 CALM      30.30R VSB 1/2
FRIDAY HARBOR  PTCLDY    41  39  93 CALM      30.31S FOG
EASTSOUND      CLEAR     46  45  93 SE3       30.29R
PORT ANGELES   CLOUDY    47  44  90 SW6       30.29F
EDIZ HOOK      PTSUNNY   47  46  93 SE3       30.29F
PORT TOWNSEND  CLOUDY    45  45 100 CALM      30.31F
NAS WHIDBEY    FOG       45  45 100 SE5       30.34S VSB 3/4
ARLINGTON      PTCLDY    45  39  81 S3        30.32S
BURLINGTON     FOG       41  41 100 CALM      30.31S VSB 1/4
$$

WAZ020-022-039-040-504-511-512-110900-
SOUTHWEST INTERIOR

CITY           SKY/WX    TMP DP  RH WIND       PRES   REMARKS
SHELTON        FOG       46  45  96 N3        30.27F VSB 1/2
OLYMPIA        CLOUDY    42  41  96 E3        30.29F
CHEHALIS       CLOUDY    45  45 100 N5        30.27F FOG
KELSO          MOCLDY    48  45  87 CALM      30.28F
VANCOUVER      CLOUDY    49  45  86 NE3       30.23F
SCAPPOOSE, OR  CLOUDY    51  48  89 NW3       30.24F
PORTLAND, OR   CLOUDY    49  44  83 E5        30.25F
$$

WAZ021-516-517-110900-
WASHINGTON COAST

CITY           SKY/WX    TMP DP  RH WIND       PRES   REMARKS
FORKS          MOCLDY    46  45  96 E3        30.25F
HOQUIAM        CLOUDY    49  48  97 NE6       30.25F
ASTORIA, OR    CLOUDY    49  48  97 E5        30.21F
$$

WAZ019-023-024-040-518-519-110900-
CASCADE MOUNTAINS AND COLUMBIA GORGE

CITY           SKY/WX    TMP DP  RH WIND       PRES   REMARKS
STAMPEDE PASS  NOT AVBL
TROUTDALE, OR  CLOUDY    52  45  77 NE7       30.24F
THE DALLES, OR CLOUDY    42  38  85 N5        30.30S
$$

WAZ026-027-041>044-520-521-110900-
EAST SLOPES

CITY           SKY/WX    TMP DP  RH WIND       PRES   REMARKS
OMAK           CLOUDY    33  31  92 W3        30.34R
WENATCHEE      MOCLDY    33  29  85 VRB3      30.31R
ELLENSBURG     MOCLDY    27  24  89 W5        30.29F FOG
YAKIMA         CLOUDY    38  32  79 W7        30.30S
$$

WAZ028-034-035-110900-
COLUMBIA BASIN

CITY           SKY/WX    TMP DP  RH WIND       PRES   REMARKS
EPHRATA        MOCLDY    32  30  92 N8        30.31R
MOSES LAKE     MOCLDY    33  31  92 N8        30.31S
PASCO          CLOUDY    40  37  89 SW5       30.31F
HERMISTON, OR  CLOUDY    40  37  89 CALM      30.29R
$$

WAZ036>038-110900-
NORTHEAST WASHINGTON

CITY           SKY/WX    TMP DP  RH WIND       PRES   REMARKS
SPOKANE GEIGER CLOUDY    35  34  96 SE5       30.28F FOG
SPOKANE FELTS  CLOUDY    35  33  92 NE3       30.30F FOG
FAIRCHILD AFB  FOG       36  36 100 NW2       30.28S VSB 1/4
COEURDALENE,ID CLOUDY    37  34  87 S6        30.26F
DEER PARK      CLOUDY    30  28  92 CALM      30.29F
$$

WAZ029>033-110900-
SOUTHEAST WASHINGTON

CITY           SKY/WX    TMP DP  RH WIND       PRES   REMARKS
PULLMAN        CLOUDY    41  34  76 E3        30.31S
LEWISTON, ID   CLOUDY    48  34  58 SW3       30.31R
WALLA WALLA    CLOUDY    46  39  76 E3        30.28F
PENDLETON, OR  CLOUDY    43  36  76 E7        30.28F
$$



USA.gov is the U.S. government's official web portal to all federal, state and local government web resources and services.